Regional Weather Roundup
Issued by NWS

Home | Current Version | Previous Version | Graphics & Text | Print | Product List | Glossary Off
Versions: 1 2 3 4 5 6 7 8 9 10 11 12 13 14 15 16 17 18 19 20 21 22 23 24 25 26 27

000
ASUS43 KDMX 250507
RWRIA

WEATHER ROUNDUP FOR IOWA
NATIONAL WEATHER SERVICE DES MOINES IA
1200 AM CDT SAT OCT 25 2014

NOTE: "FAIR" INDICATES FEW OR NO CLOUDS BELOW 12,000 FEET WITH NO
SIGNIFICANT WEATHER AND/OR OBSTRUCTIONS TO VISIBILITY.

* - THESE STATIONS ARE NOT NWS STATIONS...THUS NOT UNDER NWS
QUALITY CONTROL.  THEY ALSO DO NOT REPORT WEATHER SUCH
AS PRECIPITATION OR FOG.

IAZ001>003-012>014-020>022-031>034-043>046-250600-
   NORTHWEST IOWA

CITY           SKY/WX    TMP DP  RH WIND       PRES   REMARKS
CARROLL *      CLEAR     52  48  87 W7        29.99S
CHEROKEE *     CLEAR     46  46 100 CALM      30.00R
DENISON *      CLEAR     48  48 100 SE5       29.99R
LE MARS *      CLEAR     48  45  87 CALM      30.02R
ORANGE CITY *  CLEAR     55  43  62 W7        30.01R
SHELDON *      CLEAR     48  43  81 W5        29.99R
SIOUX CITY     CLEAR     48  44  86 NW7       30.01R
SPENCER        CLEAR     46  42  86 W6        29.99R
STORM LAKE *   CLEAR     54  46  76 W9        30.00S
$$

IAZ055>058-069>071-079>083-090>094-250600-
   SOUTHWEST IOWA

CITY           SKY/WX    TMP DP  RH WIND       PRES   REMARKS
AUDUBON *      CLEAR     46  41  81 CALM      30.01R HAZE
CLARINDA *     FOG       48  48 100 CALM      30.01R VSB 0
COUNCIL BLFS * CLEAR     61  55  82 NW5       29.99S
CRESTON *      FOG       55  55 100 NW5       29.99F VSB 1/4
HARLAN  *      CLEAR     48  48 100 CALM      30.03S FOG
LAMONI         FOG       55  54  96 CALM      29.99R VSB 1/4
RED OAK *      CLEAR     50  50 100 NE5       30.00S FOG
SHENANDOAH *   FOG       52  52 100 CALM      30.00S VSB 1/4
$$

IAZ047>049-059>061-072>074-084-250600-
   CENTRAL IOWA

CITY           SKY/WX    TMP DP  RH WIND       PRES   REMARKS
AMES           PTCLDY    50  48  93 W3        29.96S FOG
ANKENY *       FOG       48  48 100 CALM      29.97R VSB 1/4
CHARITON *     FOG       54  54 100 CALM      29.97F VSB 0
DES MOINES     FOG       56  54  93 W3        29.97S VSB 1/4
GRINNELL*      FOG       54  54 100 SW3       29.97S VSB<1/4
KNOXVILLE *    FOG       55  55 100 SW6       29.95F VSB 0
MARSHALLTOWN   FOG       55  55 100 SW6       29.95S VSB<1/4
PELLA *        FOG       56  56  99 W3        29.98S VSB 1/4
PERRY *          N/A     52  52 100 W8        29.98S FOG
$$

IAZ004>006-015-016-023>025-035-036-250600-
   NORTH CENTRAL IOWA

CITY           SKY/WX    TMP DP  RH WIND       PRES   REMARKS
ALGONA *       CLEAR     52  45  76 W7        29.97R
CLARION *      CLEAR     48  48 100 S3        29.95F
ESTHERVILLE    CLEAR     51  39  63 W8        29.96R
FORT DODGE *   CLEAR     50  45  81 CALM      29.97S
MASON CITY     CLEAR     53  50  89 W7        29.95F
FOREST CITY *  CLEAR     46  46 100 W3        29.95R FOG
IOWA FALLS *     N/A     54  52  94 W6        29.96S
$$

IAZ007>011-017>019-026>030-037>042-050>054-066-250600-
   NORTHEAST IOWA

CITY           SKY/WX    TMP DP  RH WIND       PRES   REMARKS
CEDAR RAPIDS   FOG       49  49 100 CALM      29.94F VSB 1/4
CHARLES CITY * FOG       50  50 100 S3        29.94F VSB 0
CLINTON *        N/A     54  52  94 W5        29.97S VSB 1/4
DECORAH *      CLOUDY    59  59 100 VRB6G13   29.92  FOG
DUBUQUE        FOG       58  58 100 W8        29.93F VSB 1/4
MONTICELLO *   CLOUDY    57  57 100 SW5       29.94S FOG
OELWEIN *      FOG       59  59 100 W9        29.95R VSB 0
WATERLOO       FOG       56  55  97 W6        29.94S VSB 1/4
$$

IAZ064-065-067-068-078-250600-
   EAST CENTRAL IOWA

CITY           SKY/WX    TMP DP  RH WIND       PRES   REMARKS
DAVENPORT      FOG       53  52  96 NW5       29.95S VSB 1/4
IOWA CITY      FOG       50  50 100 CALM      29.97R VSB 1/4
MT. PLEASANT * FOG       52  52 100 CALM      29.96S VSB 1/4
MUSCATINE *    FOG       50  50 100 CALM      29.96R VSB 0
QUAD CITIES    FOG       55  54  96 W3        29.94S VSB 1/4
$$

IAZ062-063-075>077-085>089-095>099-250600-
   SOUTHEAST IOWA

CITY           SKY/WX    TMP DP  RH WIND       PRES   REMARKS
BURLINGTON     MOCLDY    53  52  96 CALM      29.95S FOG
FAIRFIELD *    MOCLDY    52  50  93 CALM      29.96S
FORT MADISON *   N/A     55  55 100 CALM      29.96F FOG
KEOKUK *       FOG       55  55 100 CALM      29.95S VSB 1/4
OSKALOOSA *    FOG       52  52 100 W7        29.97S VSB<1/4
CENTERVILLE *  FOG       54  54 100 SW5       29.99S VSB 1/2
OTTUMWA        FOG       55  54  96 W6        29.97R VSB 1/4
WASHINGTON *   FOG       52  52 100 SW3       29.96S VSB 0
$$

ABBREVIATIONS USED IN REMARKS
   TC - TEMPERATURES IN CELSIUS
  WCI - WIND CHILL INDEX
   HX - HEAT INDEX
  VSB - VISIBILITY
$$




USA.gov is the U.S. government's official web portal to all federal, state and local government web resources and services.